Flag for Kazakhstan Weather past 2 weeks in Qyzylorda, Kazakhstan

Now
57 °F

Clear.


Feels Like: 55 °F
Forecast: 55 / 72 °F
Wind: 8 mph from Northeast

Location: Kzyl-Orda

Current Time: Sep 21, 2014 at 10:51:53 PM

Latest Report: Sep 21, 2014 at 10:00 PM


Visibility: 10 mi

Pressure: 30.07 "Hg

Humidity: 17%

Dew point: 12 °F

Location of QyzylordaLocation

Historic Weather in Qyzylorda — Graph

°F

Qyzylorda temperature yesterday

Maximum temperature yesterday: 66 °F (at 3:30 PM)
Minimum temperature yesterday: 36 °F (at 3:00 AM)
Average temperature yesterday: 54 °F

Past Weeks' High & Low Weather Summary

 TemperatureHumidityPressure
High90 °F (Sep 17, 2:30 PM)82% (Sep 18, 3:00 AM)30.45 "Hg (Sep 18, 3:00 AM)
Low32 °F (Sep 19, 7:00 AM)9% (Sep 14, 5:00 PM)29.50 "Hg (Sep 17, 11:00 PM)
Average64 °F27%30.04 "Hg
* Reported Sep 6 10:00 PM — Sep 21 10:00 PM, Qyzylorda, Weather by CustomWeather, © 2014

Note: Actual official high and low records may vary slightly from our data, if they occured in-between our weather recording intervals... More about our weather records

Advertising

Qyzylorda weather history for previous 24 hours

 ConditionsComfort  
Time TempWeatherWind HumidityBarometerVisibility
10:00 PM
Sep 21
57 °FClear.8 mph17%30.07 "Hg10 mi
9:00 PM61 °FClear.10 mph15%30.07 "Hg10 mi
8:00 PM63 °FClear.6 mph14%30.07 "Hg10 mi
7:30 PM66 °FSunny.8 mph12%30.07 "Hg10 mi
7:00 PM68 °FSunny.10 mph12%30.07 "Hg10 mi
6:30 PM70 °FSunny.13 mph10%30.07 "Hg10 mi
6:00 PM72 °FSunny.15 mph10%30.07 "Hg10 mi
5:30 PM73 °FSunny.15 mph9%30.07 "Hg10 mi
5:00 PM73 °FSunny.15 mph10%30.07 "Hg10 mi
4:30 PM73 °FSunny.17 mph10%30.07 "Hg10 mi
4:00 PM73 °FPassing clouds.17 mph10%30.07 "HgN/A
3:30 PM73 °FSunny.17 mph9%30.07 "Hg10 mi
3:00 PM73 °FSunny.17 mph9%30.07 "Hg10 mi
2:30 PM72 °FSunny.17 mph10%30.09 "Hg10 mi
2:00 PM72 °FPassing clouds.20 mph10%30.09 "HgN/A
1:30 PM70 °FSunny.20 mph12%30.09 "Hg10 mi
1:00 PM70 °FSunny.20 mph12%30.12 "Hg10 mi
12:30 PM68 °FSunny.20 mph13%30.12 "Hg10 mi
12:00 PM66 °FPassing clouds.17 mph15%30.12 "HgN/A
11:30 AM63 °FPassing clouds.15 mph19%30.15 "HgN/A
11:00 AM61 °FSunny.13 mph20%30.15 "Hg10 mi
10:30 AM57 °FSunny.10 mph23%30.15 "Hg10 mi
10:00 AM54 °FPassing clouds.10 mph24%30.15 "HgN/A
9:30 AM50 °FSunny.10 mph28%30.15 "Hg10 mi
9:00 AM46 °FPassing clouds.10 mph29%30.15 "HgN/A
8:30 AM43 °FSunny.10 mph31%30.15 "Hg10 mi
8:00 AM41 °FSunny.10 mph33%30.15 "Hg10 mi
7:30 AM39 °FSunny.8 mph36%30.15 "Hg10 mi
7:00 AM41 °FClear.8 mph33%30.15 "Hg10 mi
6:00 AM41 °FClear.8 mph33%30.15 "Hg10 mi
5:00 AM43 °FClear.10 mph29%30.15 "Hg10 mi
4:00 AM43 °FClear.8 mph31%30.15 "Hg10 mi
3:00 AM45 °FClear.8 mph29%30.15 "Hg10 mi
2:00 AM46 °FClear.10 mph25%30.15 "Hg10 mi
1:00 AM46 °FClear.8 mph25%30.18 "Hg10 mi
12:00 AM48 °FClear.8 mph23%30.18 "Hg10 mi
11:00 PM
Sep 20
50 °FClear.8 mph22%30.18 "Hg10 mi
Weather by CustomWeather, © 2014

See weather overviewHow to use our weather pages